Regional Weather Roundup
Issued by NWS

Home | Current Version | Previous Version | Text Only | Print | Product List | Glossary On
Versions: 1 2 3 4 5 6 7 8 9 10 11 12 13 14 15 16 17 18 19 20 21 22 23 24 25 26 27 28 29 30 31 32 33 34 35 36 37 38 39 40 41 42 43 44 45 46 47 48
000
ASCA42 TJSJ 292010
RWRPR
PUERTO RICO/U.S. VIRGIN ISLANDS HOURLY WEATHER ROUNDUP
NATIONAL WEATHER SERVICE SAN JUAN PR
400 PM AST SUN MAR 29 2015

PRZ001-004-292100-
PUERTO RICO

CITY           SKY/WX    TMP DP  RH WIND       PRES   REMARKS
SAN JUAN LMM   MOSUNNY   84  66  54 E15       30.01F
AGUADILLA      CLOUDY    81  68  65 E6        30.05F
CEIBA          SUNNY     82  68  61 E13       30.05F
$$

PRZ006-007-292100-
U.S. VIRGIN ISLANDS

CITY           SKY/WX    TMP DP  RH WIND       PRES   REMARKS
CHARLOTTE AMA  SUNNY     82  66  57 E13       30.03
CHRISTIANSTED  SUNNY     82  66  57 SE12      30.04
$$

HOURLY WEATHER ROUNDUP FOR THE NEWS MEDIA

CITY           SKY/WX    TMP DP  RH WIND       PRES   REMARKS
ORLANDO        SUNNY     70  38  31 NE8G17    30.30F
NEW YORK       SUNNY     45   0  15 W7G16     30.20F
NEWARK         MOSUNNY   46   2  16 VRB3G20   30.18F
CHICAGO        CLOUDY    38  29  70 SW25G35   29.82F WCI  27
HARTFORD       SUNNY     39  20  46 S10       30.13F WCI  32
BOSTON         SUNNY     39  16  39 SE9       30.12F WCI  33
DALLAS         SUNNY     82  55  39 S15G24    29.96F
PHILADELPHIA   SUNNY     44   5  20 NW9       30.24F
LOS ANGELES    MOSUNNY   67  57  70 W8        30.05F
WASHINGTON DC  MOSUNNY   44   5  20 VRB3      30.27F



USA.gov is the U.S. government's official web portal to all federal, state and local government web resources and services.